User: anonymous   Login
Location: Unspecified
(0.0000°N, 0.0000°E)
Time: 23:57:40
(UTC+00:00)
Language:

SRMSAT - Orbit

View from above orbital plane
View from above orbital plane
View from above satellite
View from above satellite

Ground track
Ground track

The orbit data is extracted from the following two-line orbital elements,

1 37841U 11058D   19322.86597799  .00000299  00000-0  19428-4 0  9993
2 37841  19.9703 185.8473 0011880  79.6723  17.5794 14.10643523418344
Epoch (UTC): 18 November 2019 20:47:00
Eccentricity: 0.0011880
inclination: 19.9703°
perigee height: 848 km
apogee height: 866 km
right ascension of ascending node: 185.8473°
argument of perigee: 79.6723°
revolutions per day: 14.10643523
mean anomaly at epoch: 17.5794°
orbit number at epoch: 41834

The dashed part of the orbit path shows where the satellite is in the earth's shadow,  

DLR